Tracking 18942 objects as of 18-Jan-2018
HD Live streaming from Space Station
objects crossing your sky now

FENGYUN 1C DEB

Track FENGYUN 1C DEB now!
10-day predictions


NORAD ID: 31289
Int'l Code: 1999-025BNX
Perigee: 393.5 km
Apogee: 675.4 km
Inclination: 97.4 °
Period: 95.2 minutes
Semi major axis: 6905 km
RCS: 0.0151 m2 (small)
Launch date: May 10, 1999
Source: People's Republic of China (PRC)
Launch site: Taiyaun Space Center, China (TSC)

Note: This is SATELLITE DEBRIS
aabbcc
Your satellite tracking list
Your tracking list is empty




NASA's NSSDC Master Catalog

Two Line Element Set (TLE):
1 31289U 99025BNX 18016.52313123 +.00004608 +00000-0 +15873-3 0  9999
2 31289 097.4154 224.6007 0204071 143.6440 217.8856 15.12917864288371
Source of the keplerian elements: AFSPC